Station GPXA2 - Grave Point, AK Image indicating link to RSS feed of recent meteorological observations for station GPXA2


Conditions at GPXA2 as of
(11:33 pm AKDT on 07/22/2024)
0733 GMT on 07/23/2024:
     

Click on the graph icon in the table below to see a time series plot of the last five days of that observation.

5-day plot - Wind Direction Wind Direction (WDIR):ESE ( 110 deg true )
5-day plot - Wind Speed Wind Speed (WSPD): 4.1 kts
5-day plot - Wind Gust Wind Gust (GST): 8.0 kts
5-day plot - Atmospheric Pressure Atmospheric Pressure (PRES):29.93 in
5-day plot - Air Temperature Air Temperature (ATMP): 55.4 °F
5-day plot - Dew Point Dew Point (DEWP): 53.1 °F
5-day plot - Wind Speed at 10 Meters Wind Speed at 10 meters (WSPD10M): 3.9 kts
5-day plot - Wind Speed at 20 Meters Wind Speed at 20 meters (WSPD20M): 3.9 kts
5-day plot -  Wind Speed, Wind Gust and Atmospheric Pressure Combined plot of Wind Speed, Gust, and Air Pressure
Previous observations
TIME
(AKDT)
5-day plot - Wind Direction
WDIR
 
5-day plot - Wind Speed
WSPD
kts
5-day plot - Wind Gust
GST
kts
5-day plot - Wave Height
WVHT
ft
5-day plot - Dominant Wave Period
DPD
sec
5-day plot - Average Wave Period
APD
sec
5-day plot - Mean Wave Direction
MWD
 
5-day plot - Atmospheric Pressure
PRES
in
5-day plot - Pressure Tendency
PTDY
in
5-day plot - Air Temperature
ATMP
°F
5-day plot - Water Temperature
WTMP
°F
5-day plot - Dew Point
DEWP
°F
5-day plot - Salinity
SAL
psu
5-day plot - Visibility
VIS
nmi
5-day plot - Tide (above MLLW)
TIDE
ft
2024-07-22 11:13 pm SE 2.9 4.1----29.93- 55.8- 53.8---
2024-07-22 11:03 pm SE 1.9 2.9----29.93- 55.9- 54.0---
2024-07-22 10:53 pm E 1.0 2.9----29.93- 56.1- 54.1---
2024-07-22 10:43 pmESE 1.9 2.9----29.93- 56.3- 54.0---
2024-07-22 10:33 pm E 1.9 2.9----29.93- 56.3- 54.0---
2024-07-22 10:23 pm N 1.9 5.1----29.93- 56.3- 54.0---
2024-07-22 10:03 pm N 1.0 2.9----29.93- 56.7- 53.8---
2024-07-22 09:43 pmESE 1.9 4.1----29.94- 56.8- 53.8---
2024-07-22 09:33 pmESE 1.9 4.1----29.94- 56.8- 53.2---
2024-07-22 09:23 pmESE 1.9 2.9----29.95- 56.8- 53.6---
2024-07-22 09:13 pmESE 2.9 4.1----29.94- 56.8- 53.2---
2024-07-22 09:03 pmESE 2.9 5.1----29.94- 56.8- 53.2---
2024-07-22 08:53 pmESE 2.9 4.1----29.95- 56.7- 53.2---
2024-07-22 08:43 pmESE 2.9 4.1----29.95- 56.5- 53.2---
2024-07-22 08:33 pm E 1.9 4.1----29.94- 56.3- 53.4---
2024-07-22 08:23 pmESE 2.9 5.1----29.94- 55.9- 53.4---
2024-07-22 08:13 pmESE 2.9 5.1----29.95- 55.9- 53.4---
2024-07-22 07:53 pmESE 2.9 5.1----29.95- 56.1- 53.6---
2024-07-22 07:43 pmESE 2.9 5.1----29.95- 55.9- 53.4---
2024-07-22 07:33 pmESE 2.9 4.1----29.95- 56.1- 53.6---
2024-07-22 07:23 pm SE 1.9 4.1----29.95- 56.1- 53.6---
2024-07-22 07:13 pm S 1.0 2.9----29.96- 56.8- 53.8---
2024-07-22 07:03 pm E 1.9 2.9----29.96- 57.2- 52.9---
2024-07-22 06:53 pmESE 2.9 5.1----29.96- 56.7- 53.2---
2024-07-22 06:43 pmESE 2.9 5.1----29.97- 56.3- 53.8---
2024-07-22 06:33 pmESE 2.9 5.1----29.97- 55.8- 53.4---
2024-07-22 06:23 pmESE 4.1 6.0----29.97- 55.6- 53.6---
2024-07-22 06:13 pmESE 5.1 7.0----29.98- 55.6- 53.4---
2024-07-22 06:03 pmESE 5.1 7.0----29.98- 55.8- 53.4---
2024-07-22 05:53 pmESE 5.1 7.0----29.98- 55.9- 53.6---
2024-07-22 05:43 pmESE 5.1 8.0----29.98- 55.8- 53.4---
2024-07-22 05:33 pmESE 5.1 8.0----29.98- 55.6- 53.4---
2024-07-22 05:23 pmESE 5.1 7.0----29.98- 55.8- 53.4---
2024-07-22 05:13 pm SE 4.1 8.0----29.98- 55.9- 53.4---
2024-07-22 05:03 pm SE 4.1 5.1----29.98- 55.9- 53.6---
2024-07-22 04:53 pmESE 4.1 6.0----29.98- 56.5- 53.8---
2024-07-22 04:43 pmESE 2.9 6.0----29.99- 56.5- 53.6---
2024-07-22 04:33 pmESE 4.1 6.0----29.99- 56.3- 53.6---
2024-07-22 04:23 pmESE 4.1 6.0----29.99- 56.3- 53.4---
2024-07-22 04:13 pmESE 4.1 6.0----29.99- 56.5- 53.4---
2024-07-22 03:53 pmESE 4.1 6.0----29.99- 56.8- 53.6---
2024-07-22 03:43 pmESE 4.1 6.0----30.00- 56.7- 53.6---
2024-07-22 03:33 pmESE 4.1 5.1----30.00- 56.1- 53.6---
2024-07-22 03:23 pmESE 4.1 6.0----30.00- 56.5- 53.6---
2024-07-22 03:13 pmESE 4.1 6.0----30.00- 56.5- 53.6---
2024-07-22 03:03 pmESE 4.1 6.0----30.00- 56.5- 53.6---
2024-07-22 02:53 pm SE 4.1 5.1----30.01- 56.5- 53.6---
2024-07-22 02:43 pm SE 4.1 5.1----30.01- 56.5- 53.6---
2024-07-22 02:33 pmESE 4.1 5.1----30.01- 56.5- 53.6---
2024-07-22 02:23 pmESE 4.1 5.1----30.01- 56.5- 53.6---
2024-07-22 02:13 pmESE 4.1 6.0----30.01- 56.5- 53.6---
2024-07-22 02:03 pmESE 6.0 7.0----30.01- 56.1- 53.4---
2024-07-22 01:53 pm SE 5.1 7.0----30.01- 55.8- 53.4---
2024-07-22 01:43 pm SE 5.1 7.0----30.01- 55.8- 53.6---
2024-07-22 01:33 pm SE 4.1 8.0----30.01- 56.3- 53.8---
2024-07-22 01:23 pmESE 4.1 6.0----30.02- 55.8- 53.6---
2024-07-22 01:13 pmESE 5.1 7.0----30.02- 55.2- 53.6---
2024-07-22 12:33 pmESE 5.1 8.0----30.03- 55.2- 53.6---
2024-07-22 12:23 pmESE 5.1 5.1----30.03- 55.2- 53.2---
2024-07-22 12:13 pmESE 5.1 6.0----30.03- 55.0- 53.4---
2024-07-22 12:03 pmESE 6.0 8.9----30.03- 55.0- 53.2---
2024-07-22 11:53 amESE 2.9 6.0----30.03- 55.2- 53.6---
2024-07-22 11:43 amESE 5.1 8.9----30.03- 55.0- 53.2---
2024-07-22 11:33 am SE 5.1 8.0----30.03- 55.6- 53.6---
2024-07-22 11:23 am SE 5.1 8.0----30.03- 55.6- 53.4---
2024-07-22 11:13 amESE 6.0 9.9----30.03- 55.9- 53.4---
2024-07-22 11:03 amESE 6.0 12.0----30.03- 55.9- 53.4---
2024-07-22 10:53 amESE 5.1 8.0----30.04- 56.1- 53.6---
2024-07-22 10:33 amESE 5.1 12.0----30.04- 55.9- 53.4---
2024-07-22 10:23 amESE 6.0 11.1----30.04- 55.8- 53.2---
2024-07-22 10:13 am SE 7.0 13.0----30.04- 55.8- 53.2---
2024-07-22 10:03 am E 5.1 11.1----30.04- 55.4- 53.1---
2024-07-22 09:53 amESE 5.1 11.1----30.04- 55.0- 53.2---
2024-07-22 09:43 amESE 7.0 11.1----30.03- 55.0- 53.1---
2024-07-22 09:33 amESE 7.0 12.0----30.03- 55.4- 53.2---
2024-07-22 09:23 amESE 6.0 12.0----30.03- 55.9- 53.4---
2024-07-22 09:13 amESE 5.1 14.0----30.04- 56.1- 53.2---
2024-07-22 09:03 amESE 6.0 12.0----30.04- 56.3- 53.1---
2024-07-22 08:53 amESE 5.1 12.0----30.04- 56.1- 52.9---
2024-07-22 08:44 amESE 6.0 13.0----30.04- 55.8- 52.9---
2024-07-22 08:33 amESE 1.9 8.9----30.04- 55.9- 53.1---
2024-07-22 08:23 amESE 5.1 8.0----30.04- 55.8- 52.9---
2024-07-22 08:13 am SE 4.1 9.9----30.04- 55.8- 52.9---
2024-07-22 08:03 amESE 4.1 7.0----30.04- 55.9- 53.1---
2024-07-22 07:53 am SE 2.9 7.0----30.04- 55.8- 53.1---
2024-07-22 07:43 amESE 5.1 8.0----30.04- 55.6- 53.1---
2024-07-22 07:33 am SE 5.1 8.0----30.04- 55.8- 53.1---
2024-07-22 07:23 am SE 6.0 9.9----30.04- 55.9- 52.9---
2024-07-22 07:13 am SE 6.0 9.9----30.04- 55.9- 52.7---
2024-07-22 07:03 amESE 6.0 8.9----30.04- 55.9- 52.7---
2024-07-22 06:53 amESE 5.1 8.9----30.05- 55.9- 52.7---
2024-07-22 06:43 amESE 7.0 9.9----30.04- 55.9- 52.7---
2024-07-22 06:33 amESE 6.0 11.1----30.04- 55.9- 52.7---
2024-07-22 06:23 amESE 5.1 8.9----30.04- 55.4- 52.9---
2024-07-22 06:13 amESE 7.0 12.0----30.04- 54.9- 52.9---
2024-07-22 06:03 amESE 8.9 13.0----30.03- 55.2- 53.1---
2024-07-22 05:53 amESE 8.0 12.0----30.03- 55.8- 53.1---
2024-07-22 05:43 am SE 6.0 9.9----30.03- 56.3- 52.9---
2024-07-22 05:33 am SE 6.0 8.9----30.03- 56.3- 53.1---
2024-07-22 05:23 am SE 2.9 7.0----30.03- 56.5- 53.1---
2024-07-22 05:13 amESE 4.1 7.0----30.03- 56.3- 53.1---
2024-07-22 05:03 am SE 4.1 6.0----30.03- 56.1- 53.4---
2024-07-22 04:53 am SE 2.9 5.1----30.03- 56.1- 53.4---
2024-07-22 04:43 amSSE 2.9 7.0----30.04- 57.0- 53.4---
2024-07-22 04:33 amESE 2.9 7.0----30.04- 57.9- 53.4---
2024-07-22 04:23 amESE 1.9 5.1----30.04- 57.2- 53.8---
2024-07-22 04:13 amESE 2.9 6.0----30.04- 56.7- 54.5---
2024-07-22 04:03 amESE 4.1 7.0----30.04- 56.8- 54.5---
2024-07-22 03:53 am E 1.9 2.9----30.04- 56.3- 54.3---
2024-07-22 03:43 am E 1.9 6.0----30.04- 56.5- 54.1---
2024-07-22 03:33 am- 0.0 2.9----30.03- 56.3- 54.0---
2024-07-22 03:13 amESE 2.9 6.0----30.04- 56.3- 54.0---
2024-07-22 03:03 am SE 4.1 7.0----30.04- 56.7- 53.8---
2024-07-22 02:53 amESE 4.1 7.0----30.04- 56.7- 53.8---
2024-07-22 02:43 amESE 4.1 8.0----30.04- 56.8- 54.0---
2024-07-22 02:33 am SE 5.1 8.0----30.04- 57.0- 53.8---
2024-07-22 02:23 amESE 5.1 8.0----30.04- 57.6- 54.0---
2024-07-22 02:13 amESE 2.9 7.0----30.04- 57.6- 54.1---
2024-07-22 02:03 amESE 5.1 8.0----30.04- 57.4- 54.3---
2024-07-22 01:53 am SE 5.1 7.0----30.04- 57.4- 54.5---
2024-07-22 01:43 amESE 4.1 6.0----30.04- 56.7- 54.3---
2024-07-22 01:33 amESE 2.9 5.1----30.04- 56.7- 54.1---
2024-07-22 01:13 amESE 2.9 6.0----30.04- 57.4- 54.1---
2024-07-22 01:03 am SE 2.9 5.1----30.04- 57.7- 54.3---
2024-07-22 12:53 am SE 2.9 5.1----30.04- 58.3- 54.5---
2024-07-22 12:43 amSSE 4.1 8.9----30.05- 58.8- 54.5---
2024-07-22 12:33 am SE 2.9 6.0----30.04- 58.8- 54.7---
2024-07-22 12:23 amESE 4.1 8.0----30.05- 59.0- 54.5---
2024-07-22 12:13 amESE 5.1 9.9----30.04- 59.2- 54.7---
2024-07-22 12:03 amESE 6.0 11.1----30.04- 59.2- 55.2---
2024-07-21 11:43 pm E 5.1 6.0------------
2024-07-21 11:33 pm E 2.9 7.0----30.04- 59.4- 55.8---
2024-07-21 11:23 pmSSE 4.1 8.9----30.04- 58.3- 55.4---
2024-07-21 11:13 pm SE 2.9 4.1----30.04- 59.2- 55.4---
2024-07-21 11:03 pm E 4.1 8.9----30.05- 59.0- 55.6---
2024-07-21 10:53 pmESE 5.1 9.9----30.05- 59.0- 55.8---